Location: Fredericksburg
(30.2750°N, 98.8720°W)
Time: 20:28:39
(UTC-05:00)

PCSat - Visible Passes

Search period start: 23 April 2017 00:00
Search period end: 03 May 2017 00:00
Orbit: 784 x 796 km, 67.1° (Epoch: 22 April)

Date Brightness Start Highest point End Pass type
(mag) Time Alt. Az. Time Alt. Az. Time Alt. Az.
23 Apr 11.1 03:52:14 33° NNE 03:52:14 33° NNE 03:55:10 10° NNE visible
23 Apr 11.6 05:32:57 12° WNW 05:33:41 12° NW 05:35:43 10° NNW visible
24 Apr 11.7 03:22:15 22° NE 03:22:15 22° NE 03:24:11 10° NE visible
24 Apr 11.4 05:02:58 17° NW 05:02:58 17° NW 05:06:04 10° NNW visible
25 Apr 12.2 02:52:14 14° NE 02:52:14 14° NE 02:53:04 10° NE visible
25 Apr 11.3 04:32:57 21° NW 04:32:57 21° NW 04:35:52 10° N visible
26 Apr 11.3 04:02:52 24° NNW 04:02:52 24° NNW 04:05:26 10° N visible
27 Apr 11.6 03:32:46 23° N 03:32:46 23° N 03:34:50 10° NNE visible
28 Apr 11.9 03:02:37 19° NNE 03:02:37 19° NNE 03:04:07 10° NNE visible
29 Apr 12.2 02:32:26 15° NNE 02:32:26 15° NNE 02:33:17 10° NNE visible
29 Apr 12.0 04:13:08 10° NW 04:13:08 10° NW 04:13:29 10° NNW visible
30 Apr 12.5 02:02:12 11° NE 02:02:12 11° NE 02:02:19 10° NNE visible
30 Apr 12.0 03:42:54 13° NNW 03:42:54 13° NNW 03:44:02 10° NNW visible
01 May 12.0 03:12:38 15° NNW 03:12:38 15° NNW 03:13:53 10° N visible
02 May 12.1 02:42:21 15° N 02:42:21 15° N 02:43:29 10° N visible
